GW2742 Weather Reports


Display with metric or nautical units.
time (UTC)temp
F
wind
direction
speed
MPH
gust
MPH
rain 1hr
in
rain 24hr
in
rain mn
in
humidity
%
barometer
mb
20260510222522 76 152 3.0 10.0 0.00 0.00 0.00 28 1016.6
20260510222023 76 146 5.0 11.0 0.00 0.00 0.00 27 1016.6
20260510221539 76 91 6.0 11.0 0.00 0.00 0.00 26 1016.7
20260510221023 75 63 3.0 14.0 0.00 0.00 0.00 27 1016.6
20260510220523 75 57 6.0 14.0 0.00 0.00 0.00 26 1016.7
20260510220038 75 198 6.0 13.0 0.00 0.00 0.00 25 1016.7
20260510215523 76 96 5.0 11.0 0.00 0.00 0.00 28 1016.8
20260510215022 76 121 7.0 11.0 0.00 0.00 0.00 29 1017.0
20260510214538 76 137 4.0 10.0 0.00 0.00 0.00 29 1017.1
20260510214023 75 136 4.0 10.0 0.00 0.00 0.00 27 1017.1
20260510213525 75 142 6.0 10.0 0.00 0.00 0.00 28 1017.2
20260510213041 75 202 4.0 8.0 0.00 0.00 0.00 29 1017.4
20260510212522 74 135 3.0 10.0 0.00 0.00 0.00 28 1017.4
20260510212026 74 143 3.0 11.0 0.00 0.00 0.00 29 1017.6
20260510211542 74 181 4.0 11.0 0.00 0.00 0.00 27 1017.6
20260510211023 74 160 5.0 12.0 0.00 0.00 0.00 29 1017.7
20260510210522 74 113 7.0 12.0 0.00 0.00 0.00 28 1017.7
20260510210037 74 109 5.0 15.0 0.00 0.00 0.00 29 1017.7
20260510205524 73 86 3.0 15.0 0.00 0.00 0.00 29 1017.7
20260510205023 73 122 6.0 11.0 0.00 0.00 0.00 33 1017.9
20260510204546 73 77 2.0 12.0 0.00 0.00 0.00 31 1017.8
20260510204023 73 140 6.0 12.0 0.00 0.00 0.00 33 1017.9
20260510203523 73 115 5.0 10.0 0.00 0.00 0.00 32 1017.9
20260510203037 73 154 5.0 10.0 0.00 0.00 0.00 32 1018.0
20260510202523 72 190 2.0 10.0 0.00 0.00 0.00 30 1018.1
20260510202022 72 199 6.0 15.0 0.00 0.00 0.00 31 1018.2
20260510201535 72 175 6.0 15.0 0.00 0.00 0.00 34 1018.2
20260510201024 71 112 4.0 12.0 0.00 0.00 0.00 37 1018.2
20260510200525 71 196 5.0 12.0 0.00 0.00 0.00 33 1018.4
20260510200038 70 85 3.0 12.0 0.00 0.00 0.00 34 1018.4
20260510195522 71 242 5.0 11.0 0.00 0.00 0.00 37 1018.5
20260510195022 70 147 2.0 15.0 0.00 0.00 0.00 32 1018.5
20260510194536 70 103 3.0 15.0 0.00 0.00 0.00 38 1018.7
20260510194028 70 174 6.0 11.0 0.00 0.00 0.00 34 1018.7
20260510193527 69 222 4.0 15.0 0.00 0.00 0.00 36 1018.7
20260510193036 70 150 7.0 15.0 0.00 0.00 0.00 34 1018.8
20260510192526 70 113 2.0 15.0 0.00 0.00 0.00 35 1019.1
20260510192026 70 200 7.0 15.0 0.00 0.00 0.00 36 1019.2
20260510191548 70 137 7.0 15.0 0.00 0.00 0.00 34 1019.3
20260510191027 70 172 3.0 12.0 0.00 0.00 0.00 32 1019.2
20260510190531 70 87 4.0 13.0 0.00 0.00 0.00 35 1019.4
20260510190041 70 122 7.0 13.0 0.00 0.00 0.00 36 1019.4
20260510185526 70 185 3.0 11.0 0.00 0.00 0.00 34 1019.5
20260510185029 69 94 5.0 10.0 0.00 0.00 0.00 37 1019.7
20260510184540 69 105 4.0 11.0 0.00 0.00 0.00 36 1019.8
20260510184027 68 193 5.0 11.0 0.00 0.00 0.00 37 1019.8
20260510183526 68 98 6.0 15.0 0.00 0.00 0.00 36 1020.0
20260510183043 68 23 7.0 15.0 0.00 0.00 0.00 35 1020.1
20260510182528 68 127 5.0 13.0 0.00 0.00 0.00 37 1020.1
20260510182026 68 202 6.0 13.0 0.00 0.00 0.00 40 1020.2
20260510181545 68 181 6.0 11.0 0.00 0.00 0.00 39 1020.3
20260510181028 68 127 5.0 14.0 0.00 0.00 0.00 39 1020.4
20260510180528 67 124 6.0 14.0 0.00 0.00 0.00 40 1020.5
20260510180041 66 140 5.0 12.0 0.00 0.00 0.00 40 1020.6
20260510175526 66 199 6.0 12.0 0.00 0.00 0.00 42 1020.6
20260510175027 66 148 5.0 14.0 0.00 0.00 0.00 43 1020.7
20260510174541 66 170 5.0 14.0 0.00 0.00 0.00 42 1020.7
20260510174027 66 212 4.0 14.0 0.00 0.00 0.00 44 1020.7
20260510173526 65 186 6.0 15.0 0.00 0.00 0.00 44 1020.7
20260510173043 65 131 5.0 15.0 0.00 0.00 0.00 42 1020.8
20260510172525 65 111 5.0 11.0 0.00 0.00 0.00 44 1020.7
20260510172026 65 152 4.0 13.0 0.00 0.00 0.00 47 1020.8
20260510171537 64 141 5.0 13.0 0.00 0.00 0.00 49 1020.9
20260510171026 64 103 6.0 12.0 0.00 0.00 0.00 49 1021.0
20260510170526 63 162 7.0 12.0 0.00 0.00 0.00 48 1021.0
20260510170037 63 88 6.0 11.0 0.00 0.00 0.00 49 1020.9
20260510165526 63 127 6.0 12.0 0.00 0.00 0.00 48 1021.1
20260510165027 63 82 6.0 12.0 0.00 0.00 0.00 48 1021.1
20260510164553 62 70 6.0 14.0 0.00 0.00 0.00 50 1021.2
20260510164025 62 73 7.0 14.0 0.00 0.00 0.00 50 1021.3
20260510163526 62 115 5.0 13.0 0.00 0.00 0.00 51 1021.3
20260510163045 62 193 7.0 13.0 0.00 0.00 0.00 51 1021.4
20260510162526 62 151 8.0 13.0 0.00 0.00 0.00 50 1021.5
20260510162031 61 117 7.0 12.0 0.00 0.00 0.00 52 1021.5
20260510161536 61 140 7.0 13.0 0.00 0.00 0.00 52 1021.6
20260510161026 61 152 5.0 13.0 0.00 0.00 0.00 53 1021.6
20260510160526 61 116 5.0 11.0 0.00 0.00 0.00 54 1021.6
20260510160040 60 205 5.0 10.0 0.00 0.00 0.00 54 1021.6
20260510155526 60 146 5.0 10.0 0.00 0.00 0.00 57 1021.6
20260510155027 60 122 4.0 10.0 0.00 0.00 0.00 53 1021.7
20260510154538 59 138 4.0 9.0 0.00 0.00 0.00 54 1021.8
20260510154025 59 126 3.0 9.0 0.00 0.00 0.00 56 1021.6
20260510153525 58 154 4.0 9.0 0.00 0.00 0.00 60 1021.7
20260510153045 57 92 3.0 7.0 0.00 0.00 0.00 61 1021.7
20260510152524 56 51 2.0 6.0 0.00 0.00 0.00 63 1021.8
20260510152024 56 0 3.0 5.0 0.00 0.00 0.00 65 1021.8
20260510151537 55 37 2.0 5.0 0.00 0.00 0.00 65 1021.9
20260510151026 55 37 2.0 5.0 0.00 0.00 0.00 64 1021.9
20260510150524 55 31 2.0 5.0 0.00 0.00 0.00 65 1022.0
20260510150046 54 67 2.0 5.0 0.00 0.00 0.00 66 1022.1
20260510145530 53 60 2.0 7.0 0.00 0.00 0.00 66 1022.1
20260510145026 53 69 3.0 7.0 0.00 0.00 0.00 68 1022.2
20260510144554 53 35 2.0 6.0 0.00 0.00 0.00 66 1022.1
20260510144027 53 33 2.0 6.0 0.00 0.00 0.00 68 1022.1
20260510143524 53 58 2.0 6.0 0.00 0.00 0.00 68 1022.2
20260510143037 52 82 0.0 3.0 0.00 0.00 0.00 70 1022.1
20260510142529 52 61 1.0 3.0 0.00 0.00 0.00 70 1022.2
20260510142027 51 0 0.0 0.0 0.00 0.00 0.00 70 1022.1
20260510141536 51 0 0.0 0.0 0.00 0.00 0.00 71 1022.3
20260510141028 50 0 0.0 0.0 0.00 0.00 0.00 71 1022.2
20260510140527 50 0 0.0 0.0 0.00 0.00 0.00 72 1022.2
20260510140037 50 0 0.0 0.0 0.00 0.00 0.00 73 1022.3
20260510135527 50 0 0.0 0.0 0.00 0.00 0.00 73 1022.3
20260510135026 50 0 0.0 0.0 0.00 0.00 0.00 74 1022.3
20260510134552 49 0 0.0 0.0 0.00 0.00 0.00 75 1022.4
20260510134026 48 0 0.0 0.0 0.00 0.00 0.00 78 1022.4
20260510133527 47 0 0.0 0.0 0.00 0.00 0.00 82 1022.4
20260510133038 46 0 0.0 0.0 0.00 0.00 0.00 85 1022.3
20260510132526 44 0 0.0 0.0 0.00 0.00 0.00 87 1022.4
20260510132026 43 0 0.0 0.0 0.00 0.00 0.00 89 1022.3
20260510131536 42 0 0.0 0.0 0.00 0.00 0.00 89 1022.3
20260510131026 41 0 0.0 0.0 0.00 0.00 0.00 90 1022.2
20260510130525 41 0 0.0 0.0 0.00 0.00 0.00 90 1022.2
20260510130037 40 0 0.0 0.0 0.00 0.00 0.00 89 1022.2
20260510125523 40 0 0.0 0.0 0.00 0.00 0.00 90 1022.1
20260510125024 39 0 0.0 0.0 0.00 0.00 0.00 90 1022.1
20260510124538 39 0 0.0 0.0 0.00 0.00 0.00 90 1022.1
20260510124024 39 0 0.0 0.0 0.00 0.00 0.00 90 1022.1
20260510123524 38 0 0.0 0.0 0.00 0.00 0.00 90 1022.0
20260510123037 38 0 0.0 0.0 0.00 0.00 0.00 89 1022.0
20260510122524 38 0 0.0 0.0 0.00 0.00 0.00 89 1021.9
20260510122026 38 0 0.0 0.0 0.00 0.00 0.00 90 1021.8
20260510121537 38 0 0.0 0.0 0.00 0.00 0.00 90 1021.8
20260510121025 38 0 0.0 0.0 0.00 0.00 0.00 89 1021.8
20260510120527 38 0 0.0 0.0 0.00 0.00 0.00 89 1021.8
20260510120037 38 0 0.0 0.0 0.00 0.00 0.00 90 1021.7
20260510115526 38 0 0.0 0.0 0.00 0.01 0.00 89 1021.8
20260510115027 38 0 0.0 0.0 0.00 0.01 0.00 89 1021.9
20260510114537 38 0 0.0 0.0 0.00 0.01 0.00 89 1021.9
20260510114024 38 0 0.0 0.0 0.00 0.01 0.00 88 1021.8
20260510113523 38 0 0.0 0.0 0.00 0.01 0.00 88 1021.7
20260510113041 38 0 0.0 0.0 0.00 0.01 0.00 88 1021.7
20260510112523 38 0 0.0 1.0 0.00 0.01 0.00 88 1021.8
20260510112023 38 0 0.0 1.0 0.00 0.01 0.00 88 1021.8
20260510111539 38 0 0.0 1.0 0.00 0.01 0.00 88 1021.7
20260510111023 38 0 0.0 3.0 0.00 0.01 0.00 87 1021.8
20260510110527 38 0 1.0 3.0 0.00 0.01 0.00 87 1021.7
20260510110040 39 342 1.0 3.0 0.00 0.01 0.00 87 1021.8
20260510105526 39 0 0.0 0.0 0.00 0.05 0.00 87 1021.8
20260510105024 39 0 0.0 0.0 0.00 0.05 0.00 87 1021.7
20260510104537 39 0 0.0 1.0 0.00 0.05 0.00 87 1021.8
20260510104027 39 0 0.0 2.0 0.00 0.05 0.00 87 1021.7
20260510103523 39 0 0.0 2.0 0.00 0.05 0.00 86 1021.7
20260510103043 39 213 1.0 2.0 0.00 0.05 0.00 86 1021.7
20260510102530 40 271 0.0 2.0 0.00 0.05 0.00 86 1021.7
20260510102028 40 271 0.0 3.0 0.00 0.05 0.00 86 1021.7
20260510101537 40 0 1.0 3.0 0.00 0.05 0.00 86 1021.7
20260510101023 40 285 1.0 2.0 0.00 0.05 0.00 86 1021.7
20260510100526 40 285 0.0 2.0 0.00 0.05 0.00 86 1021.7
20260510100047 40 338 0.0 1.0 0.00 0.05 0.00 86 1021.8
20260510095523 40 0 0.0 0.0 0.00 0.05 0.00 86 1021.7
20260510095024 41 0 0.0 0.0 0.00 0.05 0.00 86 1021.7
20260510094544 41 0 0.0 0.0 0.00 0.05 0.00 86 1021.7
20260510094024 41 0 0.0 0.0 0.00 0.05 0.00 86 1021.6
20260510093524 41 0 0.0 0.0 0.00 0.05 0.00 85 1021.6
20260510093036 41 0 0.0 0.0 0.00 0.05 0.00 84 1021.5
20260510092525 41 0 0.0 0.0 0.00 0.05 0.00 84 1021.6
20260510092026 41 0 0.0 0.0 0.00 0.05 0.00 84 1021.6
20260510091536 41 0 0.0 0.0 0.00 0.05 0.00 83 1021.4
20260510091025 42 0 0.0 0.0 0.00 0.05 0.00 82 1021.5
20260510090523 42 0 0.0 2.0 0.00 0.05 0.00 82 1021.5
20260510090040 42 0 0.0 3.0 0.00 0.05 0.00 81 1021.5
20260510085527 42 338 1.0 3.0 0.00 0.05 0.00 81 1021.6
20260510085026 43 338 1.0 3.0 0.00 0.05 0.00 79 1021.5
20260510084552 43 198 0.0 3.0 0.00 0.05 0.00 79 1021.5
20260510084023 44 0 0.0 3.0 0.00 0.05 0.00 80 1021.5
20260510083527 44 198 1.0 4.0 0.00 0.05 0.00 80 1021.5
20260510083041 44 212 1.0 4.0 0.00 0.05 0.00 80 1021.5
20260510082524 44 212 1.0 5.0 0.00 0.05 0.00 80 1021.5
20260510082024 44 209 2.0 5.0 0.00 0.05 0.00 80 1021.4
20260510081537 44 204 2.0 5.0 0.00 0.05 0.00 79 1021.5
20260510081024 45 203 2.0 5.0 0.00 0.05 0.00 79 1021.4
20260510080530 45 191 2.0 4.0 0.00 0.05 0.00 78 1021.3
20260510080036 45 191 2.0 4.0 0.00 0.05 0.00 79 1021.4
20260510075527 45 188 0.0 3.0 0.00 0.05 0.00 79 1021.3
20260510075023 45 0 0.0 3.0 0.00 0.05 0.00 79 1021.3
20260510074537 45 188 2.0 3.0 0.00 0.05 0.00 79 1021.3
20260510074025 45 188 1.0 3.0 0.00 0.05 0.00 79 1021.4
20260510073523 45 179 1.0 4.0 0.00 0.05 0.00 79 1021.4
20260510073047 45 179 2.0 4.0 0.00 0.05 0.00 79 1021.3
20260510072523 45 162 1.0 3.0 0.00 0.05 0.00 80 1021.4
20260510072026 45 0 0.0 1.0 0.00 0.05 0.00 80 1021.3
20260510071548 45 0 0.0 3.0 0.00 0.05 0.00 80 1021.2
20260510071023 46 0 0.0 3.0 0.00 0.05 0.00 79 1021.3
20260510070523 46 240 1.0 3.0 0.00 0.05 0.00 78 1021.3
20260510070041 46 241 0.0 2.0 0.00 0.05 0.00 78 1021.2
20260510065524 46 0 0.0 0.0 0.00 0.05 0.00 78 1021.3
20260510065026 47 0 0.0 0.0 0.00 0.05 0.00 77 1021.1
20260510064545 47 0 0.0 1.0 0.00 0.05 0.00 77 1021.1
20260510064025 47 0 0.0 3.0 0.00 0.05 0.00 77 1021.0
20260510063528 47 241 0.0 3.0 0.00 0.05 0.00 77 1021.0
20260510063038 47 241 1.0 3.0 0.00 0.05 0.00 76 1020.9
20260510062525 48 241 1.0 3.0 0.00 0.05 0.00 75 1020.9
20260510062028 48 241 0.0 3.0 0.00 0.05 0.00 75 1020.9
20260510061538 48 236 0.0 3.0 0.00 0.05 0.00 74 1020.9
20260510061024 48 0 0.0 4.0 0.00 0.05 0.00 74 1020.8
20260510060525 49 239 1.0 4.0 0.00 0.05 0.00 75 1020.9
20260510060046 48 215 1.0 4.0 0.00 0.05 0.00 74 1020.9
20260510055524 49 231 1.0 2.0 0.00 0.05 0.05 74 1020.7
20260510055024 49 230 0.0 2.0 0.00 0.05 0.05 73 1020.8
20260510054537 49 230 0.0 3.0 0.00 0.05 0.05 72 1020.8
20260510054025 50 230 0.0 3.0 0.00 0.05 0.05 71 1020.8
20260510053525 50 230 0.0 3.0 0.00 0.05 0.05 71 1020.8
20260510053041 51 230 1.0 6.0 0.00 0.05 0.05 70 1020.8
20260510052524 51 233 2.0 6.0 0.00 0.05 0.05 70 1020.8
20260510052024 51 246 1.0 3.0 0.00 0.05 0.05 69 1020.8
20260510051542 51 238 1.0 3.0 0.00 0.05 0.05 70 1020.7
20260510051024 51 224 1.0 4.0 0.00 0.05 0.05 69 1020.7
20260510050524 51 202 1.0 4.0 0.00 0.05 0.05 70 1020.6
20260510050040 51 229 1.0 3.0 0.00 0.05 0.05 69 1020.7
20260510045524 52 219 1.0 3.0 0.00 0.05 0.05 69 1020.7
20260510045026 52 219 1.0 3.0 0.00 0.05 0.05 68 1020.6
20260510044540 52 257 0.0 3.0 0.00 0.05 0.05 68 1020.6
20260510044026 52 257 1.0 3.0 0.00 0.05 0.05 68 1020.6
20260510043526 52 80 0.0 2.0 0.00 0.05 0.05 68 1020.6
20260510043044 53 0 0.0 2.0 0.00 0.05 0.05 67 1020.6
20260510042524 53 79 0.0 2.0 0.00 0.05 0.05 66 1020.6
20260510042026 53 93 1.0 3.0 0.00 0.05 0.05 66 1020.6
20260510041549 53 93 0.0 3.0 0.00 0.05 0.05 65 1020.5
20260510041025 53 105 1.0 3.0 0.00 0.05 0.05 65 1020.4
20260510040527 52 0 0.0 2.0 0.00 0.05 0.05 66 1020.4
20260510040036 52 0 0.0 2.0 0.00 0.05 0.05 66 1020.5
20260510035528 52 106 1.0 4.0 0.00 0.05 0.05 67 1020.4
20260510035026 53 106 1.0 4.0 0.00 0.05 0.05 67 1020.4
20260510034540 53 106 0.0 3.0 0.00 0.05 0.05 67 1020.2
20260510034027 53 0 0.0 3.0 0.00 0.05 0.05 64 1020.3
20260510033524 54 0 0.0 6.0 0.00 0.05 0.05 64 1020.1
20260510033037 54 44 2.0 6.0 0.00 0.05 0.05 63 1020.0
20260510032523 55 40 3.0 8.0 0.00 0.05 0.05 62 1019.9
20260510032023 55 29 3.0 8.0 0.00 0.05 0.05 62 1019.8
20260510031537 55 41 4.0 8.0 0.00 0.05 0.05 62 1019.8
20260510031024 55 25 2.0 9.0 0.00 0.05 0.05 62 1019.8
20260510030527 55 78 2.0 9.0 0.00 0.05 0.05 61 1019.7
20260510030037 55 30 2.0 7.0 0.00 0.05 0.05 62 1019.7
20260510025523 55 66 3.0 7.0 0.00 0.06 0.05 62 1019.5
20260510025026 55 63 3.0 8.0 0.00 0.06 0.05 62 1019.4
20260510024547 55 30 3.0 8.0 0.00 0.06 0.05 62 1019.4
20260510024026 56 49 4.0 9.0 0.00 0.06 0.05 61 1019.3
20260510023523 56 35 5.0 9.0 0.00 0.06 0.05 61 1019.2
20260510023037 56 54 4.0 9.0 0.00 0.06 0.05 61 1019.2
20260510022526 56 72 4.0 9.0 0.00 0.06 0.05 61 1019.0
20260510022023 57 35 4.0 13.0 0.00 0.06 0.05 61 1018.9
20260510021537 57 31 5.0 13.0 0.00 0.06 0.05 60 1019.0
20260510021022 57 27 6.0 12.0 0.00 0.06 0.05 59 1018.9
20260510020522 58 33 6.0 12.0 0.00 0.06 0.05 58 1018.8
20260510020049 59 37 5.0 10.0 0.00 0.06 0.05 57 1018.7
20260510015523 59 52 6.0 10.0 0.00 0.06 0.05 57 1018.6
20260510015023 59 11 5.0 9.0 0.00 0.06 0.05 56 1018.5
20260510014538 60 46 4.0 12.0 0.00 0.06 0.05 54 1018.5
20260510014023 61 25 2.0 12.0 0.00 0.06 0.05 53 1018.5
20260510013523 61 91 7.0 11.0 0.00 0.06 0.05 52 1018.5
20260510013046 62 32 6.0 11.0 0.00 0.06 0.05 49 1018.4
20260510012523 63 15 4.0 12.0 0.00 0.06 0.05 42 1018.2
20260510012023 63 328 5.0 12.0 0.00 0.06 0.05 40 1018.0
20260510011539 63 15 6.0 12.0 0.00 0.06 0.05 41 1018.2
20260510011022 63 360 3.0 12.0 0.00 0.06 0.05 44 1018.2
20260510010522 63 11 3.0 12.0 0.00 0.06 0.05 48 1018.0
20260510010055 64 63 6.0 14.0 0.00 0.06 0.05 47 1018.0
20260510005527 64 1 5.0 14.0 0.00 0.06 0.05 42 1018.1
20260510005022 64 40 5.0 12.0 0.00 0.06 0.05 44 1018.0
20260510004536 64 22 7.0 13.0 0.00 0.06 0.05 44 1017.8
20260510004027 64 340 6.0 14.0 0.00 0.06 0.05 41 1017.9
20260510003525 63 336 7.0 14.0 0.00 0.06 0.05 41 1017.9
20260510003038 64 307 6.0 16.0 0.00 0.06 0.05 41 1017.8
20260510002523 64 341 8.0 16.0 0.00 0.06 0.05 42 1017.9
20260510002023 64 359 7.0 16.0 0.00 0.06 0.05 41 1017.7
20260510001538 63 348 6.0 15.0 0.00 0.06 0.05 44 1017.8
20260510001025 62 348 6.0 15.0 0.00 0.06 0.05 44 1017.7
20260510000528 63 352 7.0 13.0 0.00 0.06 0.05 43 1017.7
20260510000041 62 336 7.0 13.0 0.00 0.06 0.05 44 1017.7
20260509235524 62 335 7.0 20.0 0.00 0.06 0.05 45 1017.7
20260509235023 62 324 9.0 20.0 0.00 0.06 0.05 44 1017.6
20260509234559 62 302 5.0 19.0 0.00 0.06 0.05 45 1017.6
20260509234027 62 12 6.0 19.0 0.00 0.06 0.05 44 1017.6
20260509233523 62 350 7.0 18.0 0.00 0.06 0.05 45 1017.4
20260509233040 62 37 8.0 18.0 0.00 0.06 0.05 44 1017.6
20260509232526 63 334 6.0 17.0 0.00 0.06 0.05 46 1017.6
20260509232023 63 360 8.0 17.0 0.00 0.06 0.05 44 1017.5
20260509231537 64 353 6.0 17.0 0.00 0.06 0.05 43 1017.6
20260509231023 64 319 7.0 16.0 0.00 0.06 0.05 44 1017.6
20260509230528 64 3 8.0 16.0 0.00 0.06 0.05 43 1017.5
20260509230045 64 340 6.0 17.0 0.00 0.06 0.05 44 1017.6
20260509225523 64 354 7.0 17.0 0.00 0.06 0.05 45 1017.5
20260509225026 63 25 5.0 14.0 0.00 0.06 0.05 48 1017.6
20260509224536 63 10 5.0 13.0 0.00 0.06 0.05 46 1017.6
20260509224023 63 42 5.0 16.0 0.00 0.06 0.05 47 1017.5
20260509223527 63 27 6.0 18.0 0.00 0.06 0.05 47 1017.2
20260509223036 62 33 8.0 18.0 0.00 0.06 0.05 47 1017.3